Location: Bay Ridge
(40.6340°N, 74.0146°W)
Time: 05:23:13
(UTC+00:00)

Cosmos 2298 Rocket - Pass Details

Date: 15 November 2019
Orbit: 777 x 783 km, 74.0° (Epoch: 14 December)

Event Time Altitude Azimuth Distance (km) Brightness Sun altitude
Rises 10:43:50 0° 203° (SSW) 3,249 7.2 -11.3°
Reaches altitude 10° 10:46:13 10° 205° (SSW) 2,325 6.4 -10.9°
Maximum altitude 10:51:30 74° 290° (WNW) 814 4.0 -9.9°
Drops below altitude 10° 10:56:48 10° 16° (NNE) 2,336 6.5 -8.9°
Sets 10:59:12 0° 18° (NNE) 3,267 7.3 -8.5°
